Kezdőlap
METAR-TAF:

METAR-TAF

Repülőterek :

Szegedi repülőtér

Szeged, Magyarország

földrajzi szélesség: 46-15N, földrajzi hosszúság: 020-06E, magasság: 82 m

Jelenlegi meteorológiai megfigyelések

A jelentés 38 perccel ezelõtt készült, 18:45 UTC
Dél-délnyugati szél 3 kt
Hőmérséklet 3°C
Páratartalom 87%
Légköri nyomás 1019 hPa
Látótávolság 10 km, vagy több
Borult 3000 lábon

METAR: LHUD 191845Z 21003KT 9999 OVC030 03/01 Q1019

Idő: 20:23 (19:23 UTC)


TAF: hiányzik

Meteorológiai megfigyelések és előrejelzések több, mint 4000 repülőtéren (METAR és TAF jelentéseket).

A térképen piros és sárga pontok jelzik az elérhető meteorológiai állomásokat.

Mozgassa az egeret a pont fölött, hogy megjelenjen az állomás neve.

Azután kattintson az időjárási megfigyelések és előrejelzések megtekintéséhez.

A térkép megváltoztatása: kattintson a fekete keresztel jelölt zöld gombra ráközelítéshez, a vonallal jelölt zöld gombra távolításhoz, vagy a zöld nyilakra a szomszédos térképek eléréséhez.


METAR-TAF: